Location: Amsterdam
(30.7274°N, 84.4357°W)
Time: 19:24:17
(UTC+00:00)

Altair - Pass Details

Date: 10 August 2024
Orbit: 1501 x 1682 km, 47.2° (Epoch: 07 September)

Event Time Altitude Azimuth Distance (km) Brightness Sun altitude
Rises 01:13:01 0° 307° (NW) 4,701 12.0 -10.4°
Reaches altitude 10° 01:16:07 10° 304° (NW) 3,697 11.0 -11.0°
Maximum altitude 01:25:15 66° 225° (SW) 1,620 7.7 -12.8°
Enters shadow 01:33:33 13° 146° (SE) 3,416 8.8 -14.3°
Drops below altitude 10° 01:34:15 10° 145° (SE) 3,643 - -14.5°
Sets 01:37:18 0° 143° (SE) 4,628 - -15.1°
